Location: Unspecified
(41.1850°N, 73.2650°W)
Time: 14:41:33
(UTC+00:00)

SL-08 R/B - Pass Details

Date: 18 March 2026
Orbit: 946 x 992 km, 83.0° (Epoch: 18 April)

Event Time Altitude Azimuth Distance (km) Brightness Sun altitude
Exits shadow 01:47:26 49° 220° (SW) 1,205 4.9 -30.7°
Maximum altitude 01:48:58 66° 279° (W) 1,028 4.7 -31.0°
Drops below altitude 10° 01:55:02 10° 2° (N) 2,675 7.1 -31.9°
Sets 01:57:34 0° 5° (N) 3,625 7.8 -32.3°
